Home > Weather > Haripur > Past weeks

Flag for Pakistan Weather for the Past 2 Weeks in Haripur, Pakistan

Now
82 °F

Broken clouds.


Feels Like: 83 °F
Forecast: 64 / 94 °F
Wind: 18 mph from Northeast

Location: Islamabad Airport

Current Time: May 4, 2016 at 3:41:29 PM

Latest Report: May 4, 2016 at 3:00 PM


Visibility: 3 mi

Pressure: 29.80 "Hg (28.04 "Hg at 535m altitude)

Humidity: 48%

Dew Point: 61 °F

Location of HaripurLocation

Historic Weather in Haripur — Graph

°F

Haripur Temperature Yesterday

Maximum temperature yesterday: 90 °F (at 11:00 AM)
Minimum temperature yesterday: 77 °F (at 11:00 PM)
Average temperature yesterday: 83 °F

High & Low Weather Summary for the Past Weeks

 TemperatureHumidityPressure
High106 °F (May 2, 1:00 PM)78% (Apr 20, 5:30 AM)29.95 "Hg (Apr 20, 5:30 AM)
Low59 °F (Apr 24, 6:00 AM)16% (May 1, 3:00 PM)29.62 "Hg (May 2, 5:00 PM)
Average80 °F40%29.79 "Hg
* Reported Apr 19 2:00 PM — May 4 2:00 PM, Haripur, Weather by CustomWeather, © 2016

Note: Actual official high and low records may vary slightly from our data, if they occured in-between our weather recording intervals... More about our weather records

Advertising

Haripur Weather History for the Previous 24 Hours

Scroll right to see more
 ConditionsComfort  
Time TempWeatherWind HumidityBarometerVisibility
2:00 PM
Wed, May 4
82 °FBroken clouds.16 mph48%29.83 "Hg3 mi
1:30 PM82 °FBroken clouds.16 mph42%29.83 "Hg3 mi
1:00 PM82 °FBroken clouds.16 mph42%29.83 "Hg3 mi
12:30 PM79 °FLight rain. Broken clouds.16 mph48%29.83 "Hg3 mi
11:30 AM79 °FLight rain. Broken clouds.18 mph48%29.83 "Hg2 mi
11:00 AM79 °FLight rain. Broken clouds.18 mph48%29.83 "Hg2 mi
10:30 AM82 °FLight rain. Broken clouds.18 mph42%29.83 "Hg4 mi
9:00 AM81 °FScattered clouds.16 mph42%29.83 "Hg2 mi
8:00 AM75 °FBroken clouds.14 mph54%29.80 "Hg2 mi
5:00 AM75 °FPartly cloudy.12 mph50%29.77 "Hg2 mi
4:30 AM75 °FPartly cloudy.16 mph50%29.74 "Hg2 mi
4:00 AM75 °FPartly cloudy.16 mph50%29.74 "Hg2 mi
3:30 AM77 °FPartly cloudy.18 mph47%29.77 "Hg2 mi
3:00 AM77 °FPartly cloudy.18 mph47%29.77 "Hg2 mi
2:30 AM77 °FPartly cloudy.18 mph47%29.77 "Hg2 mi
2:00 AM77 °FPartly cloudy.12 mph47%29.77 "Hg2 mi
1:30 AM77 °FPartly cloudy.12 mph47%29.77 "Hg2 mi
1:00 AM77 °FPartly cloudy.12 mph47%29.77 "Hg2 mi
12:00 AM77 °FPartly cloudy.12 mph47%29.80 "Hg2 mi
11:30 PM
Tue, May 3
77 °FPartly cloudy.12 mph47%29.80 "Hg2 mi
11:00 PM77 °FPartly cloudy.12 mph47%29.80 "Hg2 mi
10:30 PM79 °FPartly cloudy.16 mph42%29.80 "Hg2 mi
10:00 PM79 °FPartly cloudy.16 mph42%29.80 "Hg2 mi
9:30 PM79 °FPartly cloudy.16 mph42%29.80 "Hg2 mi
9:00 PM79 °FPartly cloudy.16 mph42%29.80 "Hg2 mi
8:00 PM81 °FPartly cloudy.16 mph39%29.77 "Hg2 mi
7:30 PM81 °FPartly cloudy.18 mph39%29.80 "Hg2 mi
7:00 PM81 °FPartly cloudy.14 mph39%29.80 "Hg2 mi
6:30 PM82 °FBroken clouds.16 mph40%29.83 "Hg2 mi
6:00 PM82 °FPleasantly warm.16 mph40%29.83 "HgN/A
4:00 PM86 °FBroken clouds.18 mph35%29.83 "Hg2 mi
3:00 PM88 °FBroken clouds.9 mph35%29.83 "Hg2 mi
Weather by CustomWeather, © 2016

See weather overviewHow to use our weather pages